Des Moines, IA

12:57 AM CDT on April 29, 2017 (GMT -0500)
Des Moines International

Weather History for KDSM - February, 2013

Change the Weather History Date:

Monday, February 11, 2013

  Actual Average Record
Temperature  
Mean Temperature 32 °F 26 °F  
Max Temperature 34 °F 35 °F 65 °F (1882)
Min Temperature 29 °F 17 °F -24 °F (1899)
Degree Days  
Heating Degree Days 33 39  
Month to date heating degree days 387 443  
Since 1 July heating degree days 3729 4223  
Cooling Degree Days 0 0  
Month to date cooling degree days 0 0  
Year to date cooling degree days 0 0  
Moisture  
Dew Point 21 °F    
Average Humidity 67    
Maximum Humidity 75    
Minimum Humidity 59    
Precipitation  
Precipitation T in 0.04 in 0.37 in (1965)
Month to date precipitation 0.54 0.45  
Year to date precipitation 1.65 1.45  
Snow  
Snow T in 0.30 in 6.10 in (1905)
Month to date snowfall 0.5 3.5  
Since 1 July snowfall 23.5 23.9  
Snow Depth T in    
Sea Level Pressure  
Sea Level Pressure 29.97 in    
Wind  
Wind Speed 22 mph (WNW)    
Max Wind Speed 38 mph    
Max Gust Speed 49 mph    
Visibility 10 miles    
Events Snow    
T = Trace of Precipitation, MM = Missing Value Source: NWS Daily Summary

Daily Weather History Graph

Daily Weather History Graph

Search for Another Location

Airport or City:

Trip Planner

Search our weather history database for the weather conditions in past years. The results will help you decide how hot, cold, wet, or windy it might be!

Date:

Astronomy

Feb. 11, 2013 Rise Set
Actual Time 7:14 AM CST 5:43 PM CST
Civil Twilight 6:46 AM CST 6:12 PM CST
Nautical Twilight 6:13 AM CST 6:44 PM CST
Astronomical Twilight 5:41 AM CST 7:17 PM CST
Moon 7:37 AM CST (2/11) 7:43 PM CST (2/11)
Length of Visible Light 11h 26m
Length of Day
10h 28m
Waxing Crescent, 3% of the Moon is Illuminated
Feb 11
Waxing Crescent
Feb 17
First Quarter
Feb 25
Full
Mar 4
Last Quarter
Mar 11
New

Hourly Weather History & Observations

Time (CST) Temp. Windchill Dew Point Humidity Pressure Visibility Wind Dir Wind Speed Gust Speed Precip Events Conditions
12:54 AM 33.1 °F 20.3 °F 21.9 °F 64% 29.66 in 9.0 mi West 24.2 mph 34.5 mph 0.00 in Snow Light Snow
1:26 AM 32.0 °F 20.1 °F 21.9 °F 66% 29.67 in 9.0 mi West 19.6 mph 33.4 mph 0.00 in Snow Light Snow
1:54 AM 32.0 °F 17.9 °F 21.9 °F 66% 29.70 in 9.0 mi West 28.8 mph 36.8 mph 0.00 in Snow Light Snow
2:54 AM 32.0 °F 18.6 °F 21.2 °F 64% 29.72 in 9.0 mi WNW 25.3 mph 41.4 mph N/A Snow Light Snow
3:54 AM 32.0 °F 18.4 °F 21.0 °F 64% 29.78 in 9.0 mi WNW 26.5 mph 35.7 mph 0.00 in Snow Light Snow
4:44 AM 30.9 °F 15.3 °F 19.9 °F 64% 29.79 in 9.0 mi WNW 34.5 mph 48.3 mph 0.00 in Snow Light Snow
4:54 AM 30.9 °F 15.1 °F 19.9 °F 64% 29.82 in 9.0 mi WNW 35.7 mph 46.0 mph 0.00 in Snow Light Snow
5:35 AM 30.9 °F 15.3 °F 19.9 °F 64% 29.82 in 9.0 mi WNW 34.5 mph 47.2 mph 0.00 in Snow Light Snow
5:54 AM 30.2 °F 14.3 °F 19.4 °F 64% 29.83 in 9.0 mi WNW 34.5 mph 42.6 mph N/A Snow Light Snow
6:54 AM 30.0 °F 15.7 °F 19.9 °F 66% 29.90 in 9.0 mi WNW 26.5 mph 41.4 mph 0.00 in Snow Light Snow
7:28 AM 28.9 °F 16.1 °F 19.9 °F 69% 29.90 in 10.0 mi WNW 19.6 mph 28.8 mph 0.00 in   Scattered Clouds
7:54 AM 28.9 °F 14.8 °F 19.0 °F 67% 29.93 in 10.0 mi WNW 24.2 mph 40.3 mph 0.00 in   Partly Cloudy
8:54 AM 30.0 °F 15.7 °F 19.0 °F 64% 29.97 in 10.0 mi WNW 26.5 mph 42.6 mph N/A   Scattered Clouds
9:10 AM 30.0 °F 15.4 °F 19.9 °F 66% 29.95 in 10.0 mi NW 27.6 mph 39.1 mph N/A   Mostly Cloudy
9:54 AM 30.9 °F 17.2 °F 19.9 °F 64% 30.01 in 10.0 mi WNW 25.3 mph 32.2 mph N/A   Overcast
10:54 AM 32.0 °F 17.9 °F 19.9 °F 61% 30.04 in 10.0 mi West 28.8 mph 38.0 mph N/A   Overcast
11:54 AM 32.0 °F 18.6 °F 21.0 °F 64% 30.05 in 10.0 mi WNW 25.3 mph 32.2 mph N/A   Overcast
12:54 PM 32.0 °F 19.8 °F 21.0 °F 64% 30.06 in 10.0 mi WNW 20.7 mph - N/A   Overcast
1:54 PM 33.1 °F 20.6 °F 21.0 °F 61% 30.06 in 10.0 mi WNW 23.0 mph 27.6 mph N/A   Overcast
2:54 PM 33.1 °F 20.6 °F 21.0 °F 61% 30.08 in 10.0 mi WNW 23.0 mph 27.6 mph N/A   Overcast
3:54 PM 33.1 °F 21.5 °F 21.9 °F 64% 30.09 in 10.0 mi WNW 19.6 mph 26.5 mph N/A   Overcast
4:54 PM 32.0 °F 20.8 °F 21.9 °F 66% 30.10 in 10.0 mi WNW 17.3 mph - N/A   Overcast
5:54 PM 32.0 °F 20.8 °F 21.9 °F 66% 30.11 in 10.0 mi WNW 17.3 mph - N/A   Overcast
6:54 PM 30.9 °F 19.1 °F 21.0 °F 67% 30.13 in 10.0 mi NW 18.4 mph - N/A   Overcast
7:54 PM 30.0 °F 18.7 °F 21.0 °F 69% 30.14 in 10.0 mi WNW 16.1 mph 20.7 mph N/A   Overcast
8:54 PM 30.0 °F 17.9 °F 21.0 °F 69% 30.14 in 10.0 mi WNW 18.4 mph - N/A   Overcast
9:54 PM 28.9 °F 19.8 °F 21.0 °F 72% 30.15 in 10.0 mi WNW 10.4 mph - N/A   Overcast
10:54 PM 28.9 °F 20.4 °F 21.0 °F 72% 30.16 in 9.0 mi West 9.2 mph - N/A   Overcast
11:54 PM 28.9 °F 19.8 °F 21.0 °F 72% 30.16 in 10.0 mi WNW 10.4 mph - N/A   Overcast